| time (UTC) | temp C | wind direction | speed KPH | gust KPH | rain 1hr cm | rain 24hr cm | rain mn cm | humidity % | barometer mb |
| 20260505004543 | 14 | 261 | 8.0 | 14.5 | 0.00 | 0.00 | 0.00 | 82 | 1012.8 |
| 20260505003039 | 15 | 288 | 9.7 | 14.5 | 0.00 | 0.00 | 0.00 | 82 | 1012.8 |
| 20260505001531 | 15 | 269 | 9.7 | 16.1 | 0.00 | 0.00 | 0.00 | 83 | 1012.6 |
| 20260505000039 | 15 | 269 | 4.8 | 14.5 | 0.00 | 0.00 | 0.00 | 82 | 1012.7 |
| 20260504234532 | 16 | 239 | 8.0 | 19.3 | 0.00 | 0.00 | 0.00 | 81 | 1012.7 |
| 20260504233030 | 16 | 360 | 8.0 | 17.7 | 0.00 | 0.00 | 0.00 | 80 | 1012.6 |
| 20260504231542 | 16 | 292 | 1.6 | 12.9 | 0.00 | 0.00 | 0.00 | 80 | 1012.6 |
| 20260504230051 | 16 | 215 | 8.0 | 19.3 | 0.00 | 0.00 | 0.00 | 80 | 1012.6 |
| 20260504224547 | 17 | 225 | 11.3 | 20.9 | 0.00 | 0.00 | 0.00 | 79 | 1012.6 |
| 20260504223040 | 16 | 256 | 6.4 | 19.3 | 0.00 | 0.00 | 0.00 | 80 | 1012.8 |
| 20260504221557 | 17 | 286 | 1.6 | 9.7 | 0.00 | 0.00 | 0.00 | 79 | 1012.7 |
| 20260504220105 | 17 | 291 | 0.0 | 17.7 | 0.00 | 0.00 | 0.00 | 78 | 1012.7 |
| 20260504214537 | 17 | 252 | 8.0 | 17.7 | 0.00 | 0.00 | 0.00 | 78 | 1012.7 |
| 20260504213053 | 17 | 246 | 3.2 | 19.3 | 0.00 | 0.00 | 0.00 | 79 | 1012.7 |
| 20260504211544 | 17 | 300 | 9.7 | 19.3 | 0.00 | 0.00 | 0.00 | 77 | 1012.7 |
| 20260504210034 | 18 | 286 | 4.8 | 12.9 | 0.00 | 0.00 | 0.00 | 78 | 1012.6 |
| 20260504204528 | 18 | 240 | 3.2 | 14.5 | 0.00 | 0.00 | 0.00 | 77 | 1012.7 |
| 20260504203043 | 18 | 275 | 1.6 | 11.3 | 0.00 | 0.00 | 0.00 | 78 | 1012.7 |
| 20260504201538 | 18 | 254 | 4.8 | 12.9 | 0.00 | 0.00 | 0.00 | 77 | 1012.7 |
| 20260504200046 | 18 | 256 | 6.4 | 14.5 | 0.00 | 0.00 | 0.00 | 77 | 1012.7 |
| 20260504194544 | 17 | 200 | 4.8 | 12.9 | 0.00 | 0.00 | 0.00 | 78 | 1012.7 |
| 20260504193037 | 17 | 273 | 0.0 | 14.5 | 0.00 | 0.00 | 0.00 | 78 | 1012.7 |
| 20260504191535 | 17 | 254 | 6.4 | 14.5 | 0.00 | 0.00 | 0.00 | 79 | 1012.7 |
| 20260504190043 | 16 | 248 | 0.0 | 12.9 | 0.00 | 0.00 | 0.00 | 79 | 1012.8 |
| 20260504184535 | 16 | 246 | 6.4 | 16.1 | 0.00 | 0.00 | 0.00 | 80 | 1012.9 |
| 20260504183033 | 16 | 254 | 1.6 | 11.3 | 0.00 | 0.00 | 0.00 | 80 | 1013.0 |
| 20260504181546 | 15 | 227 | 4.8 | 9.7 | 0.00 | 0.00 | 0.00 | 80 | 1013.0 |
| 20260504180038 | 15 | 254 | 1.6 | 11.3 | 0.00 | 0.00 | 0.00 | 81 | 1012.8 |
| 20260504174552 | 15 | 360 | 3.2 | 9.7 | 0.00 | 0.00 | 0.00 | 81 | 1012.9 |
| 20260504173031 | 15 | 225 | 1.6 | 6.4 | 0.00 | 0.00 | 0.00 | 82 | 1012.9 |
| 20260504171544 | 14 | 243 | 3.2 | 9.7 | 0.00 | 0.00 | 0.00 | 82 | 1012.8 |
| 20260504081601 | 13 | 121 | 0.0 | 0.0 | 0.00 | 0.00 | 0.00 | 83 | 1008.9 |
| 20260504044538 | 17 | 121 | 0.0 | 0.0 | 0.00 | 0.00 | 0.00 | 75 | 1008.6 |
| 20260504043032 | 18 | 121 | 0.0 | 0.0 | 0.00 | 0.00 | 0.00 | 74 | 1008.7 |
| 20260504041528 | 18 | 117 | 0.0 | 0.0 | 0.00 | 0.00 | 0.00 | 74 | 1008.6 |
| 20260504040036 | 19 | 117 | 0.0 | 0.0 | 0.00 | 0.00 | 0.00 | 72 | 1008.5 |
| 20260504034533 | 20 | 243 | 0.0 | 0.0 | 0.00 | 0.00 | 0.00 | 70 | 1008.2 |
| 20260504033027 | 21 | 197 | 0.0 | 1.6 | 0.00 | 0.00 | 0.00 | 67 | 1008.2 |
| 20260504031540 | 21 | 207 | 0.0 | 0.0 | 0.00 | 0.00 | 0.00 | 66 | 1008.0 |
| 20260504030033 | 21 | 205 | 0.0 | 6.4 | 0.00 | 0.00 | 0.00 | 64 | 1008.1 |
| 20260504024546 | 22 | 205 | 0.0 | 0.0 | 0.00 | 0.00 | 0.00 | 63 | 1008.1 |
| 20260504023043 | 22 | 209 | 0.0 | 6.4 | 0.00 | 0.00 | 0.00 | 64 | 1008.1 |
| 20260504021535 | 22 | 213 | 0.0 | 6.4 | 0.00 | 0.00 | 0.00 | 62 | 1008.1 |
| 20260504020049 | 23 | 207 | 0.0 | 4.8 | 0.00 | 0.00 | 0.00 | 61 | 1008.1 |
| 20260504014542 | 23 | 211 | 0.0 | 4.8 | 0.00 | 0.00 | 0.00 | 60 | 1008.2 |
| 20260504013035 | 23 | 360 | 0.0 | 3.2 | 0.00 | 0.00 | 0.00 | 60 | 1008.3 |
| 20260504011534 | 24 | 203 | 0.0 | 6.4 | 0.00 | 0.00 | 0.00 | 59 | 1008.4 |
| 20260504010042 | 25 | 228 | 0.0 | 4.8 | 0.00 | 0.00 | 0.00 | 60 | 1008.5 |